Regional Weather Roundup
Issued by NWS

Home | Current Version | Previous Version | Text Only | Print | Product List | Glossary On
Versions: 1 2 3 4 5 6 7 8 9 10 11 12 13 14 15 16 17 18 19 20 21 22 23 24 25 26 27 28 29 30 31 32 33 34 35 36 37 38 39 40 41 42 43 44 45 46 47 48 49 50
000
ASUS44 KJAN 040110
RWRMS

MISSISSIPPI HOURLY WEATHER ROUNDUP
NATIONAL WEATHER SERVICE JACKSON MS
700 PM CST SAT DEC 03 2016

NOTE: "FAIR: INDICATES FEW OR NO CLOUDS BELOW 12,000 FEET WITH NO
SIGNIFICANT WEATHER AND/OR OBSTRUCTIONS TO VISIBILITY.

MSZ001>002-007>008-010>013-018>021-025>028-034>036-040200-
NORTHWEST MISSISSIPPI

CITY           SKY/WX    TMP DP  RH WIND       PRES   REMARKS
CLEVELAND      LGT RAIN  46  46 100 E10       30.12S
GREENWOOD      RAIN      46  44  93 E15       30.12R FOG
GREENVILLE     RAIN      46  43  89 E13       30.10F FOG
OXFORD         LGT RAIN  39  39 100 E8        30.18F WCI  34
WINONA         HVY RAIN  44  44 100 NE9       30.10F
$$

MSZ003>006-009-014>017-022>024-029>033-037>039-040200-
NORTHEAST MISSISSIPPI

CITY           SKY/WX    TMP DP  RH WIND       PRES   REMARKS
COLUMBUS AFB   LGT RAIN  45  43  93 NE9       30.16F
STARKVILLE     LGT RAIN  45  43  93 E8        30.16F
TUPELO         LGT RAIN  44  41  89 N7        30.19F
$$

MSZ040-058-040200-
CENTRAL MISSISSIPPI

CITY           SKY/WX    TMP DP  RH WIND       PRES   REMARKS
JACKSON INTL   CLOUDY    48  44  86 E12G21    30.04F
JACKSON HAWKNS CLOUDY    47  44  90 E14G22    30.04R
MADISON        CLOUDY    45  43  93 E6G16     30.04S
MERIDIAN KEY   LGT RAIN  48  44  86 E12       30.12F
MERIDIAN NAS   LGT RAIN  47  42  83 E12       30.13F
VICKSBURG VKS  CLOUDY    48  46  93 E10G17    29.98F
$$

MSZ059>079-040200-
SOUTH MISSISSIPPI

CITY           SKY/WX    TMP DP  RH WIND       PRES   REMARKS
BROOKHAVEN     CLOUDY   N/A N/A N/A E8        30.03R
COLUMBIA       CLOUDY    54  39  58 E9        30.07S
HATTIESBURG    CLOUDY    54  40  59 E10       30.08F
LAUREL         CLOUDY    50  42  74 E14G20    30.09F
MCCOMB         CLOUDY    53  40  61 SE10      30.01S
NATCHEZ        CLOUDY    48  43  81 SE16G23   29.94F
PINE BELT      CLOUDY    52  39  62 E10       30.08F
$$

MSZ080>082-040200-
COASTAL MISSISSIPPI

CITY           SKY/WX    TMP DP  RH WIND       PRES   REMARKS
BAY ST LOUIS   CLOUDY    59  34  38 E9        30.05S
BILOXI         CLOUDY    60  40  46 NE8       30.06R
PASCAGOULA     CLOUDY    60  37  42 NE8       30.08R
GULFPORT       CLOUDY    60  40  47 E10       30.06R
$$

LAZ007>009-015>016-023>026-040200-
NORTHEAST LOUISIANA

CITY           SKY/WX    TMP DP  RH WIND       PRES   REMARKS
BASTROP        RAIN      47  47  97 E9G16     30.04F
TALLULAH/VBURG LGT RAIN  48  45  89 E10       30.02R
VIDALIA        RAIN      49  46  89 E8        29.99F
$$



USA.gov is the U.S. government's official web portal to all federal, state and local government web resources and services.